Location: Piolenc
(44.1794°N, 4.7641°E)
Time: 04:16:11
(UTC+00:00)

METEOR-M - Pass Details

Date: 27 January 2021
Orbit: 816 x 819 km, 98.5° (Epoch: 27 February)

Event Time Altitude Azimuth Distance (km) Brightness Sun altitude
Rises 04:26:34 0° 13° (NNE) 3,360 7.5 -28.2°
Reaches altitude 10° 04:28:56 10° 13° (NNE) 2,423 6.7 -27.8°
Maximum altitude 04:34:18 85° 286° (WNW) 827 4.0 -26.8°
Enters shadow 04:34:34 81° 226° (SW) 834 4.0 -26.8°
